Location: Dead Woman Crossing
(43.5369°N, 106.3228°W)
Time: 16:13:56
(UTC+00:00)

ITUPSAT 1 - Pass Details

Date: 29 June 2022
Orbit: 701 x 711 km, 98.6° (Epoch: 13 August)

Event Time Altitude Azimuth Distance (km) Brightness Sun altitude
Rises 04:32:49 0° 2° (N) 3,109 ? -14.2°
Reaches altitude 10° 04:35:22 10° 350° (N) 2,187 ? -14.5°
Maximum altitude 04:39:18 26° 295° (WNW) 1,375 ? -14.9°
Drops below altitude 10° 04:43:15 10° 239° (WSW) 2,180 ? -15.3°
Sets 04:45:47 0° 227° (SW) 3,096 ? -15.6°
